Find Starlink 11578

NORAD ID: 63014 Int'l Des: 2025-032 Owner: SPXS Country: US Constellation: starlink operational
LEOCIRCULAR

当前视图

正在加载3D地球...

About Starlink 11578

Starlink 11578 (NORAD 63014) is a starlink constellation satellite (v2 mini d2c) launched Feb 15, 2025 by SPXS of US. It operates in LEO, CIRCULAR orbit with a mass of 960.00 kg.

关于 Starlink 11578

正在加载描述...

即将过境

Passes for default location (London). Set your location on the main map for personalized predictions.

高度历史

Loading altitude history...

两行轨道根数

1 63014U 25032K 26174.64031518 .00131400 00000-0 10070-2 0 9993
2 63014 43.0016 277.0134 0003286 268.3260 91.7231 15.70940276 78829
Epoch: Jun 23, 2026 • Age: 13 hours

当前状态

高度 360.9 km
速度 7.70 km/s
星下点 42.18°N, 46.42°E
发射日期 Feb 15, 2025
运行时间 1.3 years
类型 internet

技术详情

分类 Payload
质量 960.00 kg
干质量 910.00 kg
总质量 960.00 kg
长度 0.30 m
直径 4.10 m
跨度 29.00 m
形状 Box + pan
制造商 SPXS
平台类型 Starlink V2MD
阶段状态 In Orbit
所有者/国家 SPXS/US

Most Searched